Weather in Sainte Agathe Des Monts

Canada     46°02′43″N   74°16′45″W
temp.,
°C
wind,
m/s
gust,
m/s
humid.,
%
clouds,
%
prec.,
mm/h
press.,
hPa
HPBL,
m
17 may, tue
tue1723:00+13wsw2399100 3.4 993166
02:00+9wnw7149798 8.5 994880
05:00+8w71396100 0.5 9961128
08:00+8w71496100 3.1 9981387
11:00+9wnw71492100 0.8 9991308
14:00+9wnw71388100 1.4 1002995
17:00+9wnw71374100 0.1 10031406
20:00+7nw61461100 0.1 10061446
18 may, wed
wed1823:00+5nw6136196 0.0 10091117
02:00+3nw61563100 0.0 1011801
05:00+1nw515700 0.0 1013621
08:00+5nnw410430 0.0 1015668
11:00+11nw46360 0.0 10151289
14:00+14wnw45325 0.0 10131734
17:00+14w3435100 0.0 10111823
20:00+9sw3971100 0.0 1011314
19 may, thu
thu1923:00+5sw2487100 0.0 101285
02:00+3w118798 0.0 101010
05:00+5se1367100 0.0 100991
08:00+4ese2790100 0.3 1008293
11:00+5ese3898100 0.9 1006331
14:00+7ese0399100 4.5 1004253
17:00+7nw1398100 0.1 1004301
20:00+8w3898100 0.1 1006522
20 may, fri
fri2023:00+5w1198100 0.0 100710
02:00+7sse1195100 0.0 100617
05:00+6ese2297100 0.0 100829
08:00+8e1599100 0.0 1007157
11:00+15se487962 0.0 1005476
14:00+22ssw61667100 0.0 10021460
17:00+20sw61693100 0.8 10021122
20:00+19sw61396100 0.9 10021002
21 may, sat
sat2123:00+18sw51199100 24.2 1001697
02:00+14wnw5129616 25.7 1006667
05:00+10nw3119810 0.0 1011425
08:00+12wnw368816 0.0 1014328
11:00+17w365399 0.0 10151022
14:00+20wsw354596 0.0 10151530
17:00+19sw235655 0.0 10141084
20:00+14w228490 0.0 101528